This is the latest recevied weather packets stored in our database for station/object KB7STN. If no packets are shown the sender has not sent any weather packets the latest 10 day(s).
| Time | Temp. | Humidity | Pressure | Rain* | Wind** | Luminosity | Snow |
|---|---|---|---|---|---|---|---|
| 1787984199 | 18.89° C | 75% | 1021.3 hPa | 0 mm | - | - | - |
| 1787983899 | 18.89° C | 73% | 1021.3 hPa | 0 mm | - | - | - |
| 1787983599 | 18.33° C | 73% | 1021.1 hPa | 0.25 mm | - | - | - |
| 1787983299 | 18.33° C | 75% | 1020.9 hPa | 0.25 mm | - | - | - |
| 1787982999 | 18.33° C | 76% | 1020.7 hPa | 0.25 mm | - | - | - |
| 1787982699 | 18.33° C | 74% | 1020.6 hPa | 0.25 mm | - | - | - |
| 1787982399 | 18.33° C | 79% | 1020.9 hPa | 0.25 mm | - | - | - |
| 1787982099 | 18.89° C | 78% | 1020.9 hPa | 0.25 mm | - | - | - |
| 1787981799 | 18.89° C | 76% | 1020.7 hPa | 0.25 mm | - | - | - |
| 1787981499 | 18.89° C | 75% | 1020.6 hPa | 0.25 mm | - | - | - |
| 1787981199 | 19.44° C | 74% | 1020.4 hPa | 0.25 mm | - | - | - |
| 1787980899 | 19.44° C | 73% | 1020.3 hPa | 0.25 mm | - | - | - |
| 1787980599 | 20° C | 71% | 1020 hPa | 0.25 mm | - | - | - |
| 1787980299 | 20° C | 71% | 1019.9 hPa | 0.25 mm | - | - | - |
| 1787979999 | 20° C | 65% | 1019.7 hPa | 0 mm | - | - | - |
| 1787979699 | 20° C | 62% | 1019.8 hPa | 0 mm | - | - | - |
| 1787979399 | 20° C | 62% | 1019.9 hPa | 0 mm | - | - | - |
| 1787979099 | 20° C | 62% | 1019.8 hPa | 0 mm | - | - | - |
| 1787978799 | 20° C | 63% | 1019.7 hPa | 0 mm | - | - | - |
| 1787978499 | 20° C | 62% | 1019.5 hPa | 0 mm | - | - | - |
| 1787978199 | 20° C | 62% | 1019.5 hPa | 0 mm | - | - | - |
| 1787977899 | 20° C | 63% | 1019.5 hPa | 0 mm | - | - | - |
| 1787977599 | 20° C | 63% | 1019.5 hPa | 0 mm | - | - | - |
| 1787977299 | 20° C | 63% | 1019.6 hPa | 0 mm | - | - | - |
| 1787976999 | 20° C | 63% | 1019.6 hPa | 0 mm | - | - | - |
* Rain latest hour (hover to see other rain measurements)
** Current wind speed in m/s (hover to see current wind gust speed)